Location: Krasnoyarskiy Pitomnik
(51.1333°N, 71.6167°E)
Time: 09:39:56
(UTC+00:00)

Cosmos 1328 Rocket - Visible Passes

Search period start: 17 August 2022 00:00
Search period end: 27 August 2022 00:00
Orbit: 600 x 627 km, 82.5° (Epoch: 16 August)

Date Brightness Start Highest point End Pass type
(mag) Time Alt. Az. Time Alt. Az. Time Alt. Az.
17 Aug 4.0 15:06:42 10° N 15:10:52 45° ENE 15:15:01 10° SSE visible
17 Aug 5.8 16:45:02 10° NW 16:48:21 22° W 16:51:40 10° SW visible
18 Aug 3.5 15:22:13 10° N 15:26:34 75° ENE 15:30:54 10° SSE visible
18 Aug 6.3 17:01:34 10° NW 17:03:42 14° W 17:05:51 10° WSW visible
19 Aug 3.9 15:37:52 10° NNW 15:42:10 65° W 15:46:28 10° S visible
20 Aug 4.9 15:53:40 10° NNW 15:57:42 39° W 16:01:44 10° SSW visible
21 Aug 5.7 16:09:40 10° NW 16:13:09 24° W 16:16:38 10° SW visible
22 Aug 6.3 16:26:03 10° NW 16:28:31 15° W 16:30:59 10° WSW visible
23 Aug 3.8 15:02:36 10° NNW 15:06:56 73° W 15:11:16 10° S visible
24 Aug 4.8 15:18:22 10° NNW 15:22:29 43° W 15:26:35 10° SSW visible
25 Aug 5.7 15:34:18 10° NNW 15:37:57 26° W 15:41:34 10° SW visible
26 Aug 6.4 15:50:35 10° NW 15:53:20 17° W 15:56:05 10° WSW visible
